Back to catalog

COSMOS 374 DEB

AliveLEO
NORAD 5240·DEBRIS·🇷🇺 Russia

Launched Oct 23, 1970 from Baikonur Cosmodrome

Loading…

Next Passes (next 24 hours)

TLE

FreshSource: Space-Track

Epoch: Sep 13, 2026, 08:08 UTC

1 05240U 70089BF  26256.33927877  .00000168  00000-0  23799-3 0  9990
2 05240  62.8727 226.9941 0824255 260.4659  90.2350 12.82459579562741

Track COSMOS 374 DEB in real time with AllMySat

Download on the App Store